Retour au catalogue

STARLINK-11590

ActifCommunicationsVLEO
NORAD 63112·PAYLOAD·🇺🇸 United States

Lancé Feb 27, 2025 depuis Cape Canaveral Space Force Station

Loading…

Prochains Passages (prochaines 24 heures)

TLE

FraisSource: CelesTrak SupGP

Époque: Sep 15, 2026, 03:14 UTC

1 63112C 25039J   26258.13520833  .00001898  00000+0  14746-4 0  2589
2 63112  43.0005 175.3657 0001437 263.2406 162.5354 15.70833310    17

Suivez STARLINK-11590 en temps réel avec AllMySat

Download on the App Store